Data supplied by UK-AIR on 1/4/2020
All Data GMT hour ending 
Status: R =Ratified P=Provisional,P*=As supplied
,,Northampton Spring Park,,,,,,,,,,,,,,,,,,,,,,,
Date,time,"Nitric oxide",status,unit,"Nitrogen dioxide",status,unit,"Nitrogen oxides as nitrogen dioxide",status,unit,"Ozone",status,unit,"PM<sub>2.5</sub> particulate matter (Hourly measured)",status,unit
 
01-01-2019,01:00,0.54907,R,ugm-3,3.63872,R,ugm-3,4.48062,R,ugm-3,66.97345,R,ugm-3,7.000,R,ugm-3 (BAM)
01-01-2019,02:00,0.30885,R,ugm-3,3.14943,R,ugm-3,3.62300,R,ugm-3,64.97505,R,ugm-3,8.000,R,ugm-3 (BAM)
01-01-2019,03:00,0.54907,R,ugm-3,3.00864,R,ugm-3,3.85053,R,ugm-3,62.16649,R,ugm-3,9.000,R,ugm-3 (BAM)
01-01-2019,04:00,0.41180,R,ugm-3,2.44900,R,ugm-3,3.08043,R,ugm-3,59.89803,R,ugm-3,10.000,R,ugm-3 (BAM)
01-01-2019,05:00,0.20590,R,ugm-3,1.25951,R,ugm-3,1.57522,R,ugm-3,63.67879,R,ugm-3,9.000,R,ugm-3 (BAM)
01-01-2019,06:00,0.20590,R,ugm-3,0.47190,R,ugm-3,0.78761,R,ugm-3,63.51676,R,ugm-3,10.000,R,ugm-3 (BAM)
01-01-2019,07:00,0.44612,R,ugm-3,1.46876,R,ugm-3,2.15280,R,ugm-3,62.70659,R,ugm-3,12.000,R,ugm-3 (BAM)
01-01-2019,08:00,0.41180,R,ugm-3,2.46651,R,ugm-3,3.09793,R,ugm-3,61.46435,R,ugm-3,9.000,R,ugm-3 (BAM)
01-01-2019,09:00,0.44612,R,ugm-3,3.30651,R,ugm-3,3.99055,R,ugm-3,58.38573,R,ugm-3,8.000,R,ugm-3 (BAM)
01-01-2019,10:00,1.09814,R,ugm-3,4.09200,R,ugm-3,5.77580,R,ugm-3,55.30711,R,ugm-3,9.000,R,ugm-3 (BAM)
01-01-2019,11:00,1.64722,R,ugm-3,6.40054,R,ugm-3,8.92624,R,ugm-3,51.04025,R,ugm-3,9.000,R,ugm-3 (BAM)
01-01-2019,12:00,2.05902,R,ugm-3,6.92428,R,ugm-3,10.08140,R,ugm-3,49.09586,R,ugm-3,8.000,R,ugm-3 (BAM)
01-01-2019,13:00,2.33356,R,ugm-3,8.49861,R,ugm-3,12.07668,R,ugm-3,46.44933,R,ugm-3,6.000,R,ugm-3 (BAM)
01-01-2019,14:00,2.12765,R,ugm-3,6.60901,R,ugm-3,9.87137,R,ugm-3,58.16968,R,ugm-3,3.000,R,ugm-3 (BAM)
01-01-2019,15:00,1.16678,R,ugm-3,4.35432,R,ugm-3,6.14335,R,ugm-3,68.70180,R,ugm-3,1.000,R,ugm-3 (BAM)
01-01-2019,16:00,2.67673,R,ugm-3,12.85560,R,ugm-3,16.95986,R,ugm-3,53.95684,R,ugm-3,5.000,R,ugm-3 (BAM)
01-01-2019,17:00,3.60329,R,ugm-3,14.00775,R,ugm-3,19.53271,R,ugm-3,57.25150,R,ugm-3,9.000,R,ugm-3 (BAM)
01-01-2019,18:00,2.16197,R,ugm-3,12.48972,R,ugm-3,15.80469,R,ugm-3,54.49695,R,ugm-3,12.000,R,ugm-3 (BAM)
01-01-2019,19:00,1.20110,R,ugm-3,12.33532,R,ugm-3,14.17697,R,ugm-3,50.17608,R,ugm-3,11.000,R,ugm-3 (BAM)
01-01-2019,20:00,1.37268,R,ugm-3,12.64980,R,ugm-3,14.75455,R,ugm-3,47.58356,R,ugm-3,7.000,R,ugm-3 (BAM)
01-01-2019,21:00,3.19148,R,ugm-3,12.90644,R,ugm-3,17.79997,R,ugm-3,47.36751,R,ugm-3,7.000,R,ugm-3 (BAM)
01-01-2019,22:00,2.29924,R,ugm-3,14.69458,R,ugm-3,18.22003,R,ugm-3,38.13166,R,ugm-3,9.000,R,ugm-3 (BAM)
01-01-2019,23:00,0.75497,R,ugm-3,11.81169,R,ugm-3,12.96930,R,ugm-3,40.02204,R,ugm-3,9.000,R,ugm-3 (BAM)
01-01-2019,24:00,0.44612,R,ugm-3,9.86992,R,ugm-3,10.55397,R,ugm-3,41.75039,R,ugm-3,13.000,R,ugm-3 (BAM)
02-01-2019,01:00,0.64025,R,ugm-3,9.72502,R,ugm-3,10.70672,R,ugm-3,37.59955,R,ugm-3,13.000,R,ugm-3 (BAM)
02-01-2019,02:00,0.44589,R,ugm-3,5.92929,R,ugm-3,6.61297,R,ugm-3,44.78453,R,ugm-3,17.000,R,ugm-3 (BAM)
02-01-2019,03:00,0.24009,R,ugm-3,4.04051,R,ugm-3,4.40865,R,ugm-3,55.31888,R,ugm-3,8.000,R,ugm-3 (BAM)
02-01-2019,04:00,0.30869,R,ugm-3,2.62323,R,ugm-3,3.09655,R,ugm-3,60.66710,R,ugm-3,7.000,R,ugm-3 (BAM)
02-01-2019,05:00,0.27439,R,ugm-3,2.09850,R,ugm-3,2.51923,R,ugm-3,67.25782,R,ugm-3,8.000,R,ugm-3 (BAM)
02-01-2019,06:00,0.72028,R,ugm-3,5.45607,R,ugm-3,6.56049,R,ugm-3,64.34061,R,ugm-3,7.000,R,ugm-3 (BAM)
02-01-2019,07:00,4.32169,R,ugm-3,13.57981,R,ugm-3,20.20631,R,ugm-3,54.18441,R,ugm-3,11.000,R,ugm-3 (BAM)
02-01-2019,08:00,6.00235,R,ugm-3,27.48278,R,ugm-3,36.68626,R,ugm-3,40.30067,R,ugm-3,8.000,R,ugm-3 (BAM)
02-01-2019,09:00,9.02067,R,ugm-3,41.95890,R,ugm-3,55.79040,R,ugm-3,24.79626,R,ugm-3,9.000,R,ugm-3 (BAM)
02-01-2019,10:00,5.79656,R,ugm-3,27.43094,R,ugm-3,36.31887,R,ugm-3,38.95011,R,ugm-3,9.000,R,ugm-3 (BAM)
02-01-2019,11:00,4.28739,R,ugm-3,21.40002,R,ugm-3,27.97393,R,ugm-3,46.94542,R,ugm-3,7.000,R,ugm-3 (BAM)
02-01-2019,12:00,2.94973,R,ugm-3,17.04804,R,ugm-3,21.57089,R,ugm-3,57.04760,R,ugm-3,8.000,R,ugm-3 (BAM)
02-01-2019,13:00,4.69898,R,ugm-3,19.08944,R,ugm-3,26.29444,R,ugm-3,57.91196,R,ugm-3,7.000,R,ugm-3 (BAM)
02-01-2019,14:00,4.59609,R,ugm-3,18.19753,R,ugm-3,25.24477,R,ugm-3,58.23609,R,ugm-3,8.000,R,ugm-3 (BAM)
02-01-2019,15:00,5.72796,R,ugm-3,18.56138,R,ugm-3,27.34412,R,ugm-3,57.53380,R,ugm-3,7.000,R,ugm-3 (BAM)
02-01-2019,16:00,5.11057,R,ugm-3,20.61018,R,ugm-3,28.44628,R,ugm-3,54.72464,R,ugm-3,7.000,R,ugm-3 (BAM)
02-01-2019,17:00,5.96805,R,ugm-3,30.26454,R,ugm-3,39.41542,R,ugm-3,49.10631,R,ugm-3,8.000,R,ugm-3 (BAM)
02-01-2019,18:00,6.79123,R,ugm-3,34.19826,R,ugm-3,44.61133,R,ugm-3,42.29950,R,ugm-3,9.000,R,ugm-3 (BAM)
02-01-2019,19:00,9.74096,R,ugm-3,37.91538,R,ugm-3,52.85130,R,ugm-3,37.86967,R,ugm-3,13.000,R,ugm-3 (BAM)
02-01-2019,20:00,5.72796,R,ugm-3,29.58300,R,ugm-3,38.36574,R,ugm-3,41.43514,R,ugm-3,12.000,R,ugm-3 (BAM)
02-01-2019,21:00,3.67001,R,ugm-3,24.44602,R,ugm-3,30.07328,R,ugm-3,48.29598,R,ugm-3,13.000,R,ugm-3 (BAM)
02-01-2019,22:00,3.12122,R,ugm-3,22.34838,R,ugm-3,27.13419,R,ugm-3,52.29363,R,ugm-3,9.000,R,ugm-3 (BAM)
02-01-2019,23:00,1.47486,R,ugm-3,16.94769,R,ugm-3,19.20911,R,ugm-3,55.42693,R,ugm-3,9.000,R,ugm-3 (BAM)
02-01-2019,24:00,0.41159,R,ugm-3,8.39614,R,ugm-3,9.02723,R,ugm-3,64.61073,R,ugm-3,9.000,R,ugm-3 (BAM)
03-01-2019,01:00,0.13713,R,ugm-3,5.94512,R,ugm-3,6.15537,R,ugm-3,63.05750,R,ugm-3,8.000,R,ugm-3 (BAM)
03-01-2019,02:00,0.37709,R,ugm-3,3.72356,R,ugm-3,4.30177,R,ugm-3,70.02786,R,ugm-3,8.000,R,ugm-3 (BAM)
03-01-2019,03:00,0.27425,R,ugm-3,2.62220,R,ugm-3,3.04271,R,ugm-3,74.72881,R,ugm-3,12.000,R,ugm-3 (BAM)
03-01-2019,04:00,0.23997,R,ugm-3,3.77644,R,ugm-3,4.14438,R,ugm-3,68.56895,R,ugm-3,12.000,R,ugm-3 (BAM)
03-01-2019,05:00,0.20569,R,ugm-3,3.72408,R,ugm-3,4.03946,R,ugm-3,69.52355,R,ugm-3,10.000,R,ugm-3 (BAM)
03-01-2019,06:00,1.13128,R,ugm-3,8.12797,R,ugm-3,9.86258,R,ugm-3,63.25562,R,ugm-3,10.000,R,ugm-3 (BAM)
03-01-2019,07:00,0.78847,R,ugm-3,10.38481,R,ugm-3,11.59378,R,ugm-3,62.08489,R,ugm-3,14.000,R,ugm-3 (BAM)
03-01-2019,08:00,5.41644,R,ugm-3,30.51571,R,ugm-3,38.82080,R,ugm-3,45.65860,R,ugm-3,13.000,R,ugm-3 (BAM)
03-01-2019,09:00,3.25672,R,ugm-3,19.45304,R,ugm-3,24.44661,R,ugm-3,60.62598,R,ugm-3,8.000,R,ugm-3 (BAM)
03-01-2019,10:00,8.50176,R,ugm-3,32.60483,R,ugm-3,45.64068,R,ugm-3,48.03609,R,ugm-3,14.000,R,ugm-3 (BAM)
03-01-2019,11:00,3.15388,R,ugm-3,16.62048,R,ugm-3,21.45636,R,ugm-3,65.48902,R,ugm-3,10.000,R,ugm-3 (BAM)
03-01-2019,12:00,3.94235,R,ugm-3,17.98208,R,ugm-3,24.02693,R,ugm-3,65.43499,R,ugm-3,10.000,R,ugm-3 (BAM)
03-01-2019,13:00,3.66810,R,ugm-3,18.40259,R,ugm-3,24.02693,R,ugm-3,64.73255,R,ugm-3,11.000,R,ugm-3 (BAM)
03-01-2019,14:00,4.04519,R,ugm-3,19.34575,R,ugm-3,25.54829,R,ugm-3,62.67926,R,ugm-3,13.000,R,ugm-3 (BAM)
03-01-2019,15:00,3.70238,R,ugm-3,17.98281,R,ugm-3,23.65971,R,ugm-3,63.70590,R,ugm-3,10.000,R,ugm-3 (BAM)
03-01-2019,16:00,3.32528,R,ugm-3,18.71839,R,ugm-3,23.81709,R,ugm-3,62.24699,R,ugm-3,11.000,R,ugm-3 (BAM)
03-01-2019,17:00,5.24504,R,ugm-3,22.54222,R,ugm-3,30.58450,R,ugm-3,56.24923,R,ugm-3,12.000,R,ugm-3 (BAM)
03-01-2019,18:00,4.49085,R,ugm-3,30.09881,R,ugm-3,36.98468,R,ugm-3,45.17229,R,ugm-3,16.000,R,ugm-3 (BAM)
03-01-2019,19:00,5.65641,R,ugm-3,25.63615,R,ugm-3,34.30920,R,ugm-3,48.52239,R,ugm-3,15.000,R,ugm-3 (BAM)
03-01-2019,20:00,1.19985,R,ugm-3,12.79676,R,ugm-3,14.63649,R,ugm-3,56.46537,R,ugm-3,16.000,R,ugm-3 (BAM)
03-01-2019,21:00,2.53682,R,ugm-3,18.93061,R,ugm-3,22.82034,R,ugm-3,48.68450,R,ugm-3,22.000,R,ugm-3 (BAM)
03-01-2019,22:00,1.81691,R,ugm-3,20.24429,R,ugm-3,23.03018,R,ugm-3,40.03908,R,ugm-3,20.000,R,ugm-3 (BAM)
03-01-2019,23:00,2.74250,R,ugm-3,18.09062,R,ugm-3,22.29573,R,ugm-3,38.68823,R,ugm-3,24.000,R,ugm-3 (BAM)
03-01-2019,24:00,1.67978,R,ugm-3,16.31017,R,ugm-3,18.88580,R,ugm-3,36.95915,R,ugm-3,29.000,R,ugm-3 (BAM)
04-01-2019,01:00,0.77664,R,ugm-3,16.56790,R,ugm-3,17.75872,R,ugm-3,31.34630,R,ugm-3,26.000,R,ugm-3 (BAM)
04-01-2019,02:00,0.54822,R,ugm-3,16.46368,R,ugm-3,17.30427,R,ugm-3,29.72494,R,ugm-3,30.000,R,ugm-3 (BAM)
04-01-2019,03:00,0.65101,R,ugm-3,18.56087,R,ugm-3,19.55907,R,ugm-3,16.59192,R,ugm-3,28.000,R,ugm-3 (BAM)
04-01-2019,04:00,0.77664,R,ugm-3,18.45563,R,ugm-3,19.64646,R,ugm-3,13.29515,R,ugm-3,30.000,R,ugm-3 (BAM)
04-01-2019,05:00,3.51771,R,ugm-3,29.00504,R,ugm-3,34.39879,R,ugm-3,5.40454,R,ugm-3,30.000,R,ugm-3 (BAM)
04-01-2019,06:00,8.80570,R,ugm-3,25.35406,R,ugm-3,38.85595,R,ugm-3,2.75631,R,ugm-3,30.000,R,ugm-3 (BAM)
04-01-2019,07:00,17.06319,R,ugm-3,30.46896,R,ugm-3,56.63215,R,ugm-3,0.97282,R,ugm-3,31.000,R,ugm-3 (BAM)
04-01-2019,08:00,73.39225,R,ugm-3,42.36620,R,ugm-3,154.89941,R,ugm-3,0.97282,R,ugm-3,35.000,R,ugm-3 (BAM)
04-01-2019,09:00,170.73464,R,ugm-3,59.12605,R,ugm-3,320.91550,R,ugm-3,1.56732,R,ugm-3,38.000,R,ugm-3 (BAM)
04-01-2019,10:00,113.20635,R,ugm-3,52.31870,R,ugm-3,225.89934,R,ugm-3,2.16181,R,ugm-3,38.000,R,ugm-3 (BAM)
04-01-2019,11:00,68.66390,R,ugm-3,48.41018,R,ugm-3,153.69336,R,ugm-3,3.35081,R,ugm-3,38.000,R,ugm-3 (BAM)
04-01-2019,12:00,35.46264,R,ugm-3,42.10911,R,ugm-3,96.48440,R,ugm-3,10.97121,R,ugm-3,42.000,R,ugm-3 (BAM)
04-01-2019,13:00,14.35637,R,ugm-3,32.41699,R,ugm-3,54.42979,R,ugm-3,25.50940,R,ugm-3,38.000,R,ugm-3 (BAM)
04-01-2019,14:00,8.63438,R,ugm-3,26.35087,R,ugm-3,39.59007,R,ugm-3,36.53465,R,ugm-3,27.000,R,ugm-3 (BAM)
04-01-2019,15:00,7.22958,R,ugm-3,29.34386,R,ugm-3,40.42906,R,ugm-3,33.07575,R,ugm-3,24.000,R,ugm-3 (BAM)
04-01-2019,16:00,10.34755,R,ugm-3,37.51502,R,ugm-3,53.38104,R,ugm-3,24.53659,R,ugm-3,29.000,R,ugm-3 (BAM)
04-01-2019,17:00,8.94275,R,ugm-3,38.30565,R,ugm-3,52.01768,R,ugm-3,23.13141,R,ugm-3,27.000,R,ugm-3 (BAM)
04-01-2019,18:00,10.75872,R,ugm-3,45.06478,R,ugm-3,61.56124,R,ugm-3,15.78124,R,ugm-3,28.000,R,ugm-3 (BAM)
04-01-2019,19:00,8.80570,R,ugm-3,52.72627,R,ugm-3,66.22815,R,ugm-3,7.78253,R,ugm-3,35.000,R,ugm-3 (BAM)
04-01-2019,20:00,13.46553,R,ugm-3,58.16622,R,ugm-3,78.81307,R,ugm-3,2.16181,R,ugm-3,31.000,R,ugm-3 (BAM)
04-01-2019,21:00,6.33873,R,ugm-3,54.88334,R,ugm-3,64.60260,R,ugm-3,3.35081,R,ugm-3,31.000,R,ugm-3 (BAM)
04-01-2019,22:00,6.74990,R,ugm-3,56.35039,R,ugm-3,66.70008,R,ugm-3,2.10777,R,ugm-3,34.000,R,ugm-3 (BAM)
04-01-2019,23:00,9.59376,R,ugm-3,55.29340,R,ugm-3,70.00363,R,ugm-3,1.56732,R,ugm-3,35.000,R,ugm-3 (BAM)
04-01-2019,24:00,3.25503,R,ugm-3,51.16924,R,ugm-3,56.16021,R,ugm-3,2.32395,R,ugm-3,34.000,R,ugm-3 (BAM)
05-01-2019,01:00,1.73511,R,ugm-3,44.86138,R,ugm-3,47.52185,R,ugm-3,4.37860,R,ugm-3,32.000,R,ugm-3 (BAM)
05-01-2019,02:00,1.09586,R,ugm-3,41.87558,R,ugm-3,43.55587,R,ugm-3,6.21654,R,ugm-3,37.000,R,ugm-3 (BAM)
05-01-2019,03:00,0.99312,R,ugm-3,38.20690,R,ugm-3,39.72966,R,ugm-3,8.86532,R,ugm-3,31.000,R,ugm-3 (BAM)
05-01-2019,04:00,0.89039,R,ugm-3,31.60305,R,ugm-3,32.96828,R,ugm-3,15.13592,R,ugm-3,27.000,R,ugm-3 (BAM)
05-01-2019,05:00,0.54793,R,ugm-3,23.37503,R,ugm-3,24.21518,R,ugm-3,21.73085,R,ugm-3,22.000,R,ugm-3 (BAM)
05-01-2019,06:00,0.68491,R,ugm-3,20.28224,R,ugm-3,21.33242,R,ugm-3,23.83907,R,ugm-3,24.000,R,ugm-3 (BAM)
05-01-2019,07:00,2.19172,R,ugm-3,23.10839,R,ugm-3,26.46897,R,ugm-3,22.92010,R,ugm-3,18.000,R,ugm-3 (BAM)
05-01-2019,08:00,3.86975,R,ugm-3,19.01544,R,ugm-3,24.94897,R,ugm-3,35.29912,R,ugm-3,23.000,R,ugm-3 (BAM)
05-01-2019,09:00,1.88351,R,ugm-3,7.01821,R,ugm-3,9.90621,R,ugm-3,61.78697,R,ugm-3,14.000,R,ugm-3 (BAM)
05-01-2019,10:00,3.28758,R,ugm-3,9.00602,R,ugm-3,14.04690,R,ugm-3,59.57064,R,ugm-3,17.000,R,ugm-3 (BAM)
05-01-2019,11:00,4.93136,R,ugm-3,14.50490,R,ugm-3,22.06621,R,ugm-3,52.97571,R,ugm-3,12.000,R,ugm-3 (BAM)
05-01-2019,12:00,6.19845,R,ugm-3,19.21861,R,ugm-3,28.72277,R,ugm-3,47.78625,R,ugm-3,17.000,R,ugm-3 (BAM)
05-01-2019,13:00,9.79423,R,ugm-3,29.00998,R,ugm-3,44.02759,R,ugm-3,36.97488,R,ugm-3,15.000,R,ugm-3 (BAM)
05-01-2019,14:00,8.49290,R,ugm-3,31.58188,R,ugm-3,44.60415,R,ugm-3,31.89354,R,ugm-3,16.000,R,ugm-3 (BAM)
05-01-2019,15:00,6.88336,R,ugm-3,30.90498,R,ugm-3,41.45932,R,ugm-3,31.24486,R,ugm-3,18.000,R,ugm-3 (BAM)
05-01-2019,16:00,8.73262,R,ugm-3,32.78673,R,ugm-3,46.17656,R,ugm-3,28.27173,R,ugm-3,22.000,R,ugm-3 (BAM)
05-01-2019,17:00,6.57515,R,ugm-3,31.37756,R,ugm-3,41.45932,R,ugm-3,31.02863,R,ugm-3,17.000,R,ugm-3 (BAM)
05-01-2019,18:00,6.64364,R,ugm-3,28.80910,R,ugm-3,38.99587,R,ugm-3,34.00176,R,ugm-3,22.000,R,ugm-3 (BAM)
05-01-2019,19:00,5.06834,R,ugm-3,27.50314,R,ugm-3,35.27449,R,ugm-3,36.75865,R,ugm-3,17.000,R,ugm-3 (BAM)
05-01-2019,20:00,4.62315,R,ugm-3,31.38300,R,ugm-3,38.47173,R,ugm-3,28.43390,R,ugm-3,21.000,R,ugm-3 (BAM)
05-01-2019,21:00,3.45880,R,ugm-3,26.87865,R,ugm-3,32.18208,R,ugm-3,28.70418,R,ugm-3,23.000,R,ugm-3 (BAM)
05-01-2019,22:00,1.43831,R,ugm-3,15.82496,R,ugm-3,18.03035,R,ugm-3,41.84000,R,ugm-3,19.000,R,ugm-3 (BAM)
05-01-2019,23:00,0.95888,R,ugm-3,14.09664,R,ugm-3,15.56690,R,ugm-3,43.89416,R,ugm-3,20.000,R,ugm-3 (BAM)
05-01-2019,24:00,1.13010,R,ugm-3,15.40651,R,ugm-3,17.13931,R,ugm-3,39.78584,R,ugm-3,21.000,R,ugm-3 (BAM)
06-01-2019,01:00,0.68455,R,ugm-3,16.20428,R,ugm-3,17.25392,R,ugm-3,36.71240,R,ugm-3,22.000,R,ugm-3 (BAM)
06-01-2019,02:00,0.58187,R,ugm-3,15.87275,R,ugm-3,16.76494,R,ugm-3,33.73865,R,ugm-3,21.000,R,ugm-3 (BAM)
06-01-2019,03:00,0.37651,R,ugm-3,12.57270,R,ugm-3,13.15000,R,ugm-3,36.11765,R,ugm-3,19.000,R,ugm-3 (BAM)
06-01-2019,04:00,0.37651,R,ugm-3,10.68664,R,ugm-3,11.26394,R,ugm-3,37.03682,R,ugm-3,20.000,R,ugm-3 (BAM)
06-01-2019,05:00,0.30805,R,ugm-3,9.63902,R,ugm-3,10.11135,R,ugm-3,38.76700,R,ugm-3,18.000,R,ugm-3 (BAM)
06-01-2019,06:00,0.47919,R,ugm-3,8.11924,R,ugm-3,8.85398,R,ugm-3,41.74076,R,ugm-3,14.000,R,ugm-3 (BAM)
06-01-2019,07:00,0.85569,R,ugm-3,8.53736,R,ugm-3,9.84940,R,ugm-3,42.87620,R,ugm-3,16.000,R,ugm-3 (BAM)
06-01-2019,08:00,0.95838,R,ugm-3,9.21816,R,ugm-3,10.68765,R,ugm-3,42.87620,R,ugm-3,15.000,R,ugm-3 (BAM)
06-01-2019,09:00,2.77245,R,ugm-3,12.72348,R,ugm-3,16.97450,R,ugm-3,39.95650,R,ugm-3,14.000,R,ugm-3 (BAM)
06-01-2019,10:00,5.71603,R,ugm-3,14.39212,R,ugm-3,23.15657,R,ugm-3,38.65886,R,ugm-3,11.000,R,ugm-3 (BAM)
06-01-2019,11:00,5.33952,R,ugm-3,19.57978,R,ugm-3,27.76693,R,ugm-3,37.68564,R,ugm-3,11.000,R,ugm-3 (BAM)
06-01-2019,12:00,4.55229,R,ugm-3,17.69582,R,ugm-3,24.67589,R,ugm-3,41.79483,R,ugm-3,10.000,R,ugm-3 (BAM)
06-01-2019,13:00,6.57172,R,ugm-3,18.79063,R,ugm-3,28.86713,R,ugm-3,42.17331,R,ugm-3,12.000,R,ugm-3 (BAM)
06-01-2019,14:00,6.02408,R,ugm-3,20.04946,R,ugm-3,29.28625,R,ugm-3,42.22738,R,ugm-3,10.000,R,ugm-3 (BAM)
06-01-2019,15:00,3.76505,R,ugm-3,16.28338,R,ugm-3,22.05637,R,ugm-3,48.28303,R,ugm-3,11.000,R,ugm-3 (BAM)
06-01-2019,16:00,3.55968,R,ugm-3,12.09269,R,ugm-3,17.55079,R,ugm-3,55.04157,R,ugm-3,13.000,R,ugm-3 (BAM)
06-01-2019,17:00,2.39594,R,ugm-3,13.30078,R,ugm-3,16.97450,R,ugm-3,52.71663,R,ugm-3,14.000,R,ugm-3 (BAM)
06-01-2019,18:00,5.51066,R,ugm-3,22.35601,R,ugm-3,30.80557,R,ugm-3,41.47042,R,ugm-3,16.000,R,ugm-3 (BAM)
06-01-2019,19:00,3.66237,R,ugm-3,24.61373,R,ugm-3,30.22928,R,ugm-3,37.30716,R,ugm-3,17.000,R,ugm-3 (BAM)
06-01-2019,20:00,2.66976,R,ugm-3,30.74606,R,ugm-3,34.83964,R,ugm-3,26.27721,R,ugm-3,26.000,R,ugm-3 (BAM)
06-01-2019,21:00,2.29326,R,ugm-3,29.90882,R,ugm-3,33.42510,R,ugm-3,22.05988,R,ugm-3,19.000,R,ugm-3 (BAM)
06-01-2019,22:00,2.12212,R,ugm-3,30.69513,R,ugm-3,33.94900,R,ugm-3,15.24727,R,ugm-3,19.000,R,ugm-3 (BAM)
06-01-2019,23:00,0.85569,R,ugm-3,16.81505,R,ugm-3,18.12709,R,ugm-3,32.33287,R,ugm-3,22.000,R,ugm-3 (BAM)
06-01-2019,24:00,0.41073,R,ugm-3,8.32898,R,ugm-3,8.95876,R,ugm-3,46.76912,R,ugm-3,10.000,R,ugm-3 (BAM)
07-01-2019,01:00,0.31929,R,ugm-3,6.35306,R,ugm-3,6.84263,R,ugm-3,44.20126,R,ugm-3,11.000,R,ugm-3 (BAM)
07-01-2019,02:00,0.20526,R,ugm-3,5.18382,R,ugm-3,5.49854,R,ugm-3,49.21266,R,ugm-3,11.000,R,ugm-3 (BAM)
07-01-2019,03:00,0.20526,R,ugm-3,4.24121,R,ugm-3,4.55594,R,ugm-3,52.99824,R,ugm-3,15.000,R,ugm-3 (BAM)
07-01-2019,04:00,0.20526,R,ugm-3,4.86961,R,ugm-3,5.18434,R,ugm-3,54.02576,R,ugm-3,11.000,R,ugm-3 (BAM)
07-01-2019,05:00,0.41052,R,ugm-3,5.30548,R,ugm-3,5.93493,R,ugm-3,55.54000,R,ugm-3,8.000,R,ugm-3 (BAM)
07-01-2019,06:00,0.72981,R,ugm-3,5.16502,R,ugm-3,6.28405,R,ugm-3,57.97359,R,ugm-3,10.000,R,ugm-3 (BAM)
07-01-2019,07:00,3.18152,R,ugm-3,13.24075,R,ugm-3,18.11900,R,ugm-3,51.37585,R,ugm-3,9.000,R,ugm-3 (BAM)
07-01-2019,08:00,5.98672,R,ugm-3,27.26796,R,ugm-3,36.44747,R,ugm-3,31.31223,R,ugm-3,14.000,R,ugm-3 (BAM)
07-01-2019,09:00,10.57084,R,ugm-3,32.23113,R,ugm-3,48.43953,R,ugm-3,24.22777,R,ugm-3,15.000,R,ugm-3 (BAM)
07-01-2019,10:00,8.96298,R,ugm-3,30.08818,R,ugm-3,43.83123,R,ugm-3,30.66327,R,ugm-3,13.000,R,ugm-3 (BAM)
07-01-2019,11:00,3.48940,R,ugm-3,16.27725,R,ugm-3,21.62760,R,ugm-3,47.26578,R,ugm-3,10.000,R,ugm-3 (BAM)
07-01-2019,12:00,3.18152,R,ugm-3,10.77950,R,ugm-3,15.65775,R,ugm-3,55.54000,R,ugm-3,6.000,R,ugm-3 (BAM)
07-01-2019,13:00,3.31836,R,ugm-3,9.41760,R,ugm-3,14.50568,R,ugm-3,57.59503,R,ugm-3,3.000,R,ugm-3 (BAM)
07-01-2019,14:00,1.60786,R,ugm-3,6.43705,R,ugm-3,8.90240,R,ugm-3,59.59599,R,ugm-3,3.000,R,ugm-3 (BAM)
07-01-2019,15:00,2.18943,R,ugm-3,8.73971,R,ugm-3,12.09679,R,ugm-3,54.40432,R,ugm-3,4.000,R,ugm-3 (BAM)
07-01-2019,16:00,2.22364,R,ugm-3,7.95412,R,ugm-3,11.36365,R,ugm-3,55.54000,R,ugm-3,5.000,R,ugm-3 (BAM)
07-01-2019,17:00,2.97626,R,ugm-3,8.63297,R,ugm-3,13.19650,R,ugm-3,54.72880,R,ugm-3,5.000,R,ugm-3 (BAM)
07-01-2019,18:00,2.53153,R,ugm-3,7.32493,R,ugm-3,11.20655,R,ugm-3,57.43279,R,ugm-3,7.000,R,ugm-3 (BAM)
07-01-2019,19:00,2.18943,R,ugm-3,7.95421,R,ugm-3,11.31128,R,ugm-3,56.89199,R,ugm-3,11.000,R,ugm-3 (BAM)
07-01-2019,20:00,2.36048,R,ugm-3,7.90140,R,ugm-3,11.52075,R,ugm-3,54.56656,R,ugm-3,8.000,R,ugm-3 (BAM)
07-01-2019,21:00,1.12893,R,ugm-3,5.28619,R,ugm-3,7.01719,R,ugm-3,66.30189,R,ugm-3,7.000,R,ugm-3 (BAM)
07-01-2019,22:00,0.51315,R,ugm-3,2.30284,R,ugm-3,3.08966,R,ugm-3,75.49546,R,ugm-3,9.000,R,ugm-3 (BAM)
07-01-2019,23:00,0.27368,R,ugm-3,2.72239,R,ugm-3,3.14202,R,ugm-3,75.81994,R,ugm-3,9.000,R,ugm-3 (BAM)
07-01-2019,24:00,0.27368,R,ugm-3,3.50789,R,ugm-3,3.92753,R,ugm-3,73.71082,R,ugm-3,6.000,R,ugm-3 (BAM)
08-01-2019,01:00,0.18236,R,ugm-3,5.23393,R,ugm-3,5.51354,R,ugm-3,70.80556,R,ugm-3,6.000,R,ugm-3 (BAM)
08-01-2019,02:00,0.23934,R,ugm-3,3.50644,R,ugm-3,3.87343,R,ugm-3,70.26465,R,ugm-3,7.000,R,ugm-3 (BAM)
08-01-2019,03:00,0.17096,R,ugm-3,3.66364,R,ugm-3,3.92578,R,ugm-3,67.83054,R,ugm-3,10.000,R,ugm-3 (BAM)
08-01-2019,04:00,0.13677,R,ugm-3,3.55904,R,ugm-3,3.76875,R,ugm-3,66.96508,R,ugm-3,10.000,R,ugm-3 (BAM)
08-01-2019,05:00,0.44450,R,ugm-3,4.65751,R,ugm-3,5.33906,R,ugm-3,64.90961,R,ugm-3,8.000,R,ugm-3 (BAM)
08-01-2019,06:00,0.34192,R,ugm-3,2.45932,R,ugm-3,2.98359,R,ugm-3,70.04829,R,ugm-3,8.000,R,ugm-3 (BAM)
08-01-2019,07:00,1.67541,R,ugm-3,5.91076,R,ugm-3,8.47968,R,ugm-3,65.61280,R,ugm-3,8.000,R,ugm-3 (BAM)
08-01-2019,08:00,2.66698,R,ugm-3,8.78724,R,ugm-3,12.87655,R,ugm-3,66.26189,R,ugm-3,6.000,R,ugm-3 (BAM)
08-01-2019,09:00,3.55597,R,ugm-3,12.03038,R,ugm-3,17.48279,R,ugm-3,64.42279,R,ugm-3,8.000,R,ugm-3 (BAM)
08-01-2019,10:00,3.59016,R,ugm-3,10.51234,R,ugm-3,16.01717,R,ugm-3,62.31322,R,ugm-3,13.000,R,ugm-3 (BAM)
08-01-2019,11:00,2.87213,R,ugm-3,10.14768,R,ugm-3,14.55155,R,ugm-3,61.61004,R,ugm-3,16.000,R,ugm-3 (BAM)
08-01-2019,12:00,,,,,,,,,,59.12183,R,ugm-3,,,
08-01-2019,13:00,2.80374,R,ugm-3,10.51425,R,ugm-3,14.81326,R,ugm-3,56.54348,R,ugm-3,13.000,R,ugm-3 (BAM)
08-01-2019,14:00,2.35925,R,ugm-3,9.15440,R,ugm-3,12.77186,R,ugm-3,60.65442,R,ugm-3,11.000,R,ugm-3 (BAM)
08-01-2019,15:00,2.25667,R,ugm-3,10.82965,R,ugm-3,14.28983,R,ugm-3,57.87774,R,ugm-3,12.000,R,ugm-3 (BAM)
08-01-2019,16:00,3.38501,R,ugm-3,15.79955,R,ugm-3,20.98982,R,ugm-3,52.46860,R,ugm-3,16.000,R,ugm-3 (BAM)
08-01-2019,17:00,4.20562,R,ugm-3,21.13660,R,ugm-3,27.58512,R,ugm-3,44.94990,R,ugm-3,17.000,R,ugm-3 (BAM)
08-01-2019,18:00,5.60749,R,ugm-3,25.42537,R,ugm-3,34.02340,R,ugm-3,40.62260,R,ugm-3,11.000,R,ugm-3 (BAM)
08-01-2019,19:00,4.27400,R,ugm-3,25.84737,R,ugm-3,32.40074,R,ugm-3,38.62122,R,ugm-3,16.000,R,ugm-3 (BAM)
08-01-2019,20:00,3.00890,R,ugm-3,23.70436,R,ugm-3,28.31793,R,ugm-3,36.72802,R,ugm-3,11.000,R,ugm-3 (BAM)
08-01-2019,21:00,2.90632,R,ugm-3,25.17023,R,ugm-3,29.62653,R,ugm-3,31.53525,R,ugm-3,16.000,R,ugm-3 (BAM)
08-01-2019,22:00,2.25667,R,ugm-3,21.56010,R,ugm-3,25.02028,R,ugm-3,33.59072,R,ugm-3,14.000,R,ugm-3 (BAM)
08-01-2019,23:00,0.95738,R,ugm-3,17.95155,R,ugm-3,19.41951,R,ugm-3,35.97074,R,ugm-3,15.000,R,ugm-3 (BAM)
08-01-2019,24:00,0.51288,R,ugm-3,16.59170,R,ugm-3,17.37811,R,ugm-3,36.29529,R,ugm-3,12.000,R,ugm-3 (BAM)
09-01-2019,01:00,0.63710,R,ugm-3,14.90063,R,ugm-3,15.87749,R,ugm-3,36.51942,R,ugm-3,13.000,R,ugm-3 (BAM)
09-01-2019,02:00,0.30717,R,ugm-3,14.67530,R,ugm-3,15.14629,R,ugm-3,37.16865,R,ugm-3,14.000,R,ugm-3 (BAM)
09-01-2019,03:00,0.37543,R,ugm-3,11.69807,R,ugm-3,12.27372,R,ugm-3,41.28047,R,ugm-3,14.000,R,ugm-3 (BAM)
09-01-2019,04:00,0.23891,R,ugm-3,9.24374,R,ugm-3,9.61006,R,ugm-3,47.39409,R,ugm-3,15.000,R,ugm-3 (BAM)
09-01-2019,05:00,0.58021,R,ugm-3,9.39939,R,ugm-3,10.28903,R,ugm-3,44.47253,R,ugm-3,12.000,R,ugm-3 (BAM)
09-01-2019,06:00,0.64847,R,ugm-3,9.60810,R,ugm-3,10.60240,R,ugm-3,46.36613,R,ugm-3,11.000,R,ugm-3 (BAM)
09-01-2019,07:00,3.51540,R,ugm-3,15.08341,R,ugm-3,20.47361,R,ugm-3,40.57713,R,ugm-3,11.000,R,ugm-3 (BAM)
09-01-2019,08:00,9.21511,R,ugm-3,26.55643,R,ugm-3,40.68607,R,ugm-3,28.40399,R,ugm-3,9.000,R,ugm-3 (BAM)
09-01-2019,09:00,9.35163,R,ugm-3,31.83110,R,ugm-3,46.17007,R,ugm-3,28.07937,R,ugm-3,13.000,R,ugm-3 (BAM)
09-01-2019,10:00,6.45058,R,ugm-3,30.42972,R,ugm-3,40.32047,R,ugm-3,34.46351,R,ugm-3,8.000,R,ugm-3 (BAM)
09-01-2019,11:00,6.45058,R,ugm-3,25.57246,R,ugm-3,35.46321,R,ugm-3,40.03610,R,ugm-3,6.000,R,ugm-3 (BAM)
09-01-2019,12:00,6.62123,R,ugm-3,24.52737,R,ugm-3,34.67978,R,ugm-3,45.93331,R,ugm-3,6.000,R,ugm-3 (BAM)
09-01-2019,13:00,6.38232,R,ugm-3,25.93827,R,ugm-3,35.72435,R,ugm-3,45.22997,R,ugm-3,12.000,R,ugm-3 (BAM)
09-01-2019,14:00,3.51540,R,ugm-3,17.01587,R,ugm-3,22.40606,R,ugm-3,59.89184,R,ugm-3,8.000,R,ugm-3 (BAM)
09-01-2019,15:00,2.90105,R,ugm-3,14.92859,R,ugm-3,19.37681,R,ugm-3,61.73134,R,ugm-3,9.000,R,ugm-3 (BAM)
09-01-2019,16:00,4.19800,R,ugm-3,18.99848,R,ugm-3,25.43532,R,ugm-3,56.05054,R,ugm-3,11.000,R,ugm-3 (BAM)
09-01-2019,17:00,9.01033,R,ugm-3,32.92894,R,ugm-3,46.74459,R,ugm-3,38.89994,R,ugm-3,13.000,R,ugm-3 (BAM)
09-01-2019,18:00,14.36875,R,ugm-3,49.99145,R,ugm-3,72.02322,R,ugm-3,20.18036,R,ugm-3,12.000,R,ugm-3 (BAM)
09-01-2019,19:00,18.94218,R,ugm-3,49.71644,R,ugm-3,78.76071,R,ugm-3,11.68621,R,ugm-3,17.000,R,ugm-3 (BAM)
09-01-2019,20:00,13.20833,R,ugm-3,49.26376,R,ugm-3,69.51625,R,ugm-3,9.57620,R,ugm-3,19.000,R,ugm-3 (BAM)
09-01-2019,21:00,13.44724,R,ugm-3,49.47195,R,ugm-3,70.09077,R,ugm-3,7.68260,R,ugm-3,24.000,R,ugm-3 (BAM)
09-01-2019,22:00,7.41760,R,ugm-3,46.28687,R,ugm-3,57.66036,R,ugm-3,9.52210,R,ugm-3,24.000,R,ugm-3 (BAM)
09-01-2019,23:00,5.27878,R,ugm-3,43.92566,R,ugm-3,52.01967,R,ugm-3,10.11723,R,ugm-3,28.000,R,ugm-3 (BAM)
09-01-2019,24:00,3.78844,R,ugm-3,40.57013,R,ugm-3,46.37899,R,ugm-3,10.92878,R,ugm-3,30.000,R,ugm-3 (BAM)
10-01-2019,01:00,2.18036,R,ugm-3,34.10906,R,ugm-3,37.45223,R,ugm-3,13.63681,R,ugm-3,32.000,R,ugm-3 (BAM)
10-01-2019,02:00,1.60120,R,ugm-3,30.32424,R,ugm-3,32.77938,R,ugm-3,17.69539,R,ugm-3,32.000,R,ugm-3 (BAM)
10-01-2019,03:00,0.98798,R,ugm-3,28.91940,R,ugm-3,30.43428,R,ugm-3,17.04602,R,ugm-3,27.000,R,ugm-3 (BAM)
10-01-2019,04:00,0.91984,R,ugm-3,28.08583,R,ugm-3,29.49623,R,ugm-3,16.12607,R,ugm-3,23.000,R,ugm-3 (BAM)
10-01-2019,05:00,1.80561,R,ugm-3,34.33624,R,ugm-3,37.10480,R,ugm-3,9.63235,R,ugm-3,24.000,R,ugm-3 (BAM)
10-01-2019,06:00,4.46292,R,ugm-3,38.70414,R,ugm-3,45.54719,R,ugm-3,7.35955,R,ugm-3,20.000,R,ugm-3 (BAM)
10-01-2019,07:00,11.65129,R,ugm-3,43.36828,R,ugm-3,61.23335,R,ugm-3,2.86806,R,ugm-3,20.000,R,ugm-3 (BAM)
10-01-2019,08:00,33.99997,R,ugm-3,50.42678,R,ugm-3,102.55934,R,ugm-3,0.81172,R,ugm-3,24.000,R,ugm-3 (BAM)
10-01-2019,09:00,33.21641,R,ugm-3,49.64792,R,ugm-3,100.57903,R,ugm-3,1.94812,R,ugm-3,24.000,R,ugm-3 (BAM)
10-01-2019,10:00,27.05008,R,ugm-3,43.26032,R,ugm-3,84.73653,R,ugm-3,6.49372,R,ugm-3,26.000,R,ugm-3 (BAM)
10-01-2019,11:00,19.86171,R,ugm-3,38.02293,R,ugm-3,68.47712,R,ugm-3,11.41813,R,ugm-3,30.000,R,ugm-3 (BAM)